Simultaneous Nadir Overpasses (SNOs) Predictions

Prediction of SNOs between GOES-13 and NPP Satellite Orbit:

Table of predicted SNOs for the next 14.0 days since TLE Epoch: 1/6/2025
Index Date Time (GOES-13) GOES-13 Lat,Lon NPP Lat,Lon Distance(km) Time Diff (sec)
1 01/06/2025 16:09:49 -2.35, -38.59 -2.75, -40.42 208.60 80
2 01/08/2025 04:32:03 2.35, -45.69 2.43, -46.03 38.38 80
3 01/09/2025 16:51:53 -2.28, -54.32 -1.70, -51.77 290.89 80
4 01/11/2025 05:14:08 2.28, -61.38 1.38, -57.37 456.42 80
5 01/11/2025 17:57:36 -2.57, -64.84 -3.15, -67.30 281.52 80
6 01/13/2025 06:19:52 2.57, -72.08 2.76, -72.93 96.40 80
7 01/14/2025 18:39:41 -2.50, -80.59 -2.06, -78.65 220.84 80
8 01/16/2025 07:01:55 2.50, -87.79 1.72, -84.26 401.26 80
9 01/16/2025 19:45:25
